Time,TemperatureF,DewpointF,PressureIn,WindDirection,WindDirectionDegrees,WindSpeedMPH,WindSpeedGustMPH,Humidity,HourlyPrecipIn,Conditions,Clouds,dailyrainin,SoftwareType,DateUTC
2013-10-13 00:14:00,44.6,40.0,30.20,WSW,237,0.0,0.0,83,0.00,,,0.00,weatherlink.com 1.10,2013-10-13 05:14:00,
2013-10-13 00:29:00,43.4,39.0,30.21,SW,231,0.0,0.0,85,0.00,,,0.00,weatherlink.com 1.10,2013-10-13 05:29:00,
2013-10-13 00:44:00,42.5,39.0,30.22,SW,216,0.0,3.0,87,0.00,,,0.00,weatherlink.com 1.10,2013-10-13 05:44:00,
2013-10-13 00:59:00,41.7,38.0,30.22,SW,225,0.0,0.0,88,0.00,,,0.00,weatherlink.com 1.10,2013-10-13 05:59:00,
2013-10-13 01:14:00,41.6,39.0,30.23,SW,232,0.0,0.0,89,0.00,,,0.00,weatherlink.com 1.10,2013-10-13 06:14:00,
2013-10-13 01:29:00,41.7,38.0,30.24,SW,236,0.0,0.0,88,0.00,,,0.00,weatherlink.com 1.10,2013-10-13 06:29:00,
2013-10-13 01:44:00,41.9,38.0,30.25,SW,228,0.0,0.0,87,0.00,,,0.00,weatherlink.com 1.10,2013-10-13 06:44:00,
2013-10-13 01:59:00,41.7,38.0,30.26,WSW,242,0.0,0.0,88,0.00,,,0.00,weatherlink.com 1.10,2013-10-13 06:59:00,
2013-10-13 02:15:00,41.1,38.0,30.27,SW,228,0.0,0.0,88,0.00,,,0.00,weatherlink.com 1.10,2013-10-13 07:15:00,
2013-10-13 02:30:00,40.7,38.0,30.28,SW,220,0.0,0.0,89,0.00,,,0.00,weatherlink.com 1.10,2013-10-13 07:30:00,
2013-10-13 02:45:00,40.5,38.0,30.28,SW,220,0.0,0.0,89,0.00,,,0.00,weatherlink.com 1.10,2013-10-13 07:45:00,
2013-10-13 03:00:00,39.8,37.0,30.29,SW,223,0.0,0.0,90,0.00,,,0.00,weatherlink.com 1.10,2013-10-13 08:00:00,
2013-10-13 03:15:00,39.5,37.0,30.28,SW,227,0.0,0.0,90,0.00,,,0.00,weatherlink.com 1.10,2013-10-13 08:15:00,
2013-10-13 03:30:00,39.3,37.0,30.28,SW,228,0.0,0.0,91,0.00,,,0.00,weatherlink.com 1.10,2013-10-13 08:30:00,
2013-10-13 03:45:00,39.7,37.0,30.29,SW,227,0.0,0.0,91,0.00,,,0.00,weatherlink.com 1.10,2013-10-13 08:45:00,
2013-10-13 04:00:00,38.8,36.0,30.30,SW,223,0.0,0.0,91,0.00,,,0.00,weatherlink.com 1.10,2013-10-13 09:00:00,
2013-10-13 04:15:00,38.6,37.0,30.30,SW,223,0.0,0.0,92,0.00,,,0.00,weatherlink.com 1.10,2013-10-13 09:15:00,
2013-10-13 04:30:00,38.4,36.0,30.31,SW,232,0.0,0.0,92,0.00,,,0.00,weatherlink.com 1.10,2013-10-13 09:30:00,
2013-10-13 04:45:00,37.8,36.0,30.31,SW,221,0.0,0.0,93,0.00,,,0.00,weatherlink.com 1.10,2013-10-13 09:45:00,
2013-10-13 05:00:00,38.1,36.0,30.32,SW,221,0.0,0.0,93,0.00,,,0.00,weatherlink.com 1.10,2013-10-13 10:00:00,
2013-10-13 05:15:00,37.4,36.0,30.32,SW,233,0.0,0.0,93,0.00,,,0.00,weatherlink.com 1.10,2013-10-13 10:15:00,
2013-10-13 05:30:00,36.9,35.0,30.33,SW,228,0.0,0.0,94,0.00,,,0.00,weatherlink.com 1.10,2013-10-13 10:30:00,
2013-10-13 05:45:00,36.9,36.0,30.34,SW,221,0.0,0.0,95,0.00,,,0.00,weatherlink.com 1.10,2013-10-13 10:45:00,
2013-10-13 06:00:00,37.0,36.0,30.35,SW,220,0.0,0.0,94,0.00,,,0.00,weatherlink.com 1.10,2013-10-13 11:00:00,
2013-10-13 06:15:00,36.7,35.0,30.36,SW,220,0.0,0.0,95,0.00,,,0.00,weatherlink.com 1.10,2013-10-13 11:15:00,
2013-10-13 06:30:00,36.7,35.0,30.36,SW,220,0.0,0.0,95,0.00,,,0.00,weatherlink.com 1.10,2013-10-13 11:30:00,
2013-10-13 06:45:00,36.4,35.0,30.36,SW,220,0.0,0.0,95,0.00,,,0.00,weatherlink.com 1.10,2013-10-13 11:45:00,
2013-10-13 07:00:00,36.3,35.0,30.37,SW,220,0.0,0.0,95,0.00,,,0.00,weatherlink.com 1.10,2013-10-13 12:00:00,
2013-10-13 07:15:00,36.7,36.0,30.38,SW,220,0.0,0.0,96,0.00,,,0.00,weatherlink.com 1.10,2013-10-13 12:15:00,
2013-10-13 07:30:00,36.7,35.0,30.39,SW,220,0.0,0.0,95,0.00,,,0.00,weatherlink.com 1.10,2013-10-13 12:30:00,
2013-10-13 07:45:00,36.3,35.0,30.39,SW,220,0.0,0.0,95,0.00,,,0.00,weatherlink.com 1.10,2013-10-13 12:45:00,
2013-10-13 08:00:00,36.7,35.0,30.40,SW,220,0.0,0.0,95,0.00,,,0.00,weatherlink.com 1.10,2013-10-13 13:00:00,
2013-10-13 08:15:00,37.4,36.0,30.41,SW,222,0.0,0.0,95,0.00,,,0.00,weatherlink.com 1.10,2013-10-13 13:15:00,
2013-10-13 08:30:00,38.8,37.0,30.41,SW,222,0.0,0.0,94,0.00,,,0.00,weatherlink.com 1.10,2013-10-13 13:30:00,
2013-10-13 08:46:00,39.9,38.0,30.42,SW,222,0.0,0.0,93,0.00,,,0.00,weatherlink.com 1.10,2013-10-13 13:46:00,
2013-10-13 09:01:00,41.2,39.0,30.42,WNW,284,0.0,0.0,91,0.00,,,0.00,weatherlink.com 1.10,2013-10-13 14:01:00,
2013-10-13 09:16:00,42.9,40.0,30.43,NW,305,0.0,0.0,88,0.00,,,0.00,weatherlink.com 1.10,2013-10-13 14:16:00,
2013-10-13 09:31:00,44.2,40.0,30.44,WNW,287,0.0,0.0,86,0.00,,,0.00,weatherlink.com 1.10,2013-10-13 14:31:00,
2013-10-13 09:46:00,45.1,41.0,30.45,NNW,344,0.0,0.0,84,0.00,,,0.00,weatherlink.com 1.10,2013-10-13 14:46:00,
2013-10-13 10:01:00,46.2,41.0,30.45,NNW,342,0.0,0.0,82,0.00,,,0.00,weatherlink.com 1.10,2013-10-13 15:01:00,
2013-10-13 10:16:00,47.1,41.0,30.45,NNE,22,0.0,1.0,80,0.00,,,0.00,weatherlink.com 1.10,2013-10-13 15:16:00,
2013-10-13 10:31:00,48.1,42.0,30.46,NW,320,0.0,0.0,78,0.00,,,0.00,weatherlink.com 1.10,2013-10-13 15:31:00,
2013-10-13 10:46:00,48.6,41.0,30.46,NNW,328,0.0,0.0,76,0.00,,,0.00,weatherlink.com 1.10,2013-10-13 15:46:00,
2013-10-13 11:01:00,50.0,42.0,30.46,WNW,282,0.0,0.0,74,0.00,,,0.00,weatherlink.com 1.10,2013-10-13 16:01:00,
2013-10-13 11:16:00,51.8,43.0,30.47,SW,215,0.0,0.0,71,0.00,,,0.00,weatherlink.com 1.10,2013-10-13 16:16:00,
2013-10-13 11:31:00,52.5,43.0,30.47,SW,226,0.0,3.0,69,0.00,,,0.00,weatherlink.com 1.10,2013-10-13 16:31:00,
2013-10-13 11:47:00,53.6,41.0,30.47,WSW,254,4.0,7.0,62,0.00,,,0.00,weatherlink.com 1.10,2013-10-13 16:47:00,
2013-10-13 12:01:00,54.7,40.0,30.46,West,262,6.0,6.0,59,0.00,,,0.00,weatherlink.com 1.10,2013-10-13 17:01:00,
2013-10-13 12:16:00,54.7,38.0,30.46,SW,229,3.0,7.0,54,0.00,,,0.00,weatherlink.com 1.10,2013-10-13 17:16:00,
2013-10-13 12:31:00,55.1,39.0,30.45,WSW,254,0.0,6.0,55,0.00,,,0.00,weatherlink.com 1.10,2013-10-13 17:31:00,
2013-10-13 12:46:00,55.3,37.0,30.45,NW,317,0.0,6.0,51,0.00,,,0.00,weatherlink.com 1.10,2013-10-13 17:46:00,
2013-10-13 13:01:00,56.0,37.0,30.45,WNW,297,1.0,9.0,50,0.00,,,0.00,weatherlink.com 1.10,2013-10-13 18:01:00,
2013-10-13 13:16:00,56.1,36.0,30.44,WNW,303,0.0,9.0,48,0.00,,,0.00,weatherlink.com 1.10,2013-10-13 18:16:00,
2013-10-13 13:31:00,56.2,36.0,30.43,NNW,341,2.0,7.0,47,0.00,,,0.00,weatherlink.com 1.10,2013-10-13 18:31:00,
2013-10-13 13:46:00,56.2,37.0,30.43,NNW,332,0.0,5.0,48,0.00,,,0.00,weatherlink.com 1.10,2013-10-13 18:46:00,
2013-10-13 14:01:00,56.7,38.0,30.43,WSW,241,4.0,7.0,49,0.00,,,0.00,weatherlink.com 1.10,2013-10-13 19:01:00,
2013-10-13 14:16:00,56.2,39.0,30.43,WNW,295,0.0,6.0,52,0.00,,,0.00,weatherlink.com 1.10,2013-10-13 19:16:00,
2013-10-13 14:31:00,57.4,37.0,30.42,WNW,289,2.0,5.0,47,0.00,,,0.00,weatherlink.com 1.10,2013-10-13 19:31:00,
2013-10-13 14:46:00,57.1,37.0,30.42,West,265,0.0,6.0,47,0.00,,,0.00,weatherlink.com 1.10,2013-10-13 19:46:00,
2013-10-13 15:01:00,57.1,37.0,30.41,SW,225,0.0,5.0,48,0.00,,,0.00,weatherlink.com 1.10,2013-10-13 20:01:00,
2013-10-13 15:16:00,57.1,38.0,30.40,WSW,245,0.0,6.0,49,0.00,,,0.00,weatherlink.com 1.10,2013-10-13 20:16:00,
2013-10-13 15:31:00,57.4,37.0,30.40,ENE,68,0.0,6.0,47,0.00,,,0.00,weatherlink.com 1.10,2013-10-13 20:31:00,
2013-10-13 15:46:00,59.3,38.0,30.40,SSW,213,0.0,1.0,45,0.00,,,0.00,weatherlink.com 1.10,2013-10-13 20:46:00,
2013-10-13 16:01:00,58.6,38.0,30.40,SE,137,0.0,6.0,47,0.00,,,0.00,weatherlink.com 1.10,2013-10-13 21:01:00,
2013-10-13 16:16:00,59.1,39.0,30.40,WSW,241,0.0,1.0,47,0.00,,,0.00,weatherlink.com 1.10,2013-10-13 21:16:00,
2013-10-13 16:31:00,58.7,37.0,30.40,NW,311,0.0,6.0,45,0.00,,,0.00,weatherlink.com 1.10,2013-10-13 21:31:00,
2013-10-13 16:47:00,60.0,37.0,30.40,SSE,158,0.0,1.0,42,0.00,,,0.00,weatherlink.com 1.10,2013-10-13 21:47:00,
2013-10-13 17:02:00,58.8,37.0,30.40,WSW,251,0.0,4.0,44,0.00,,,0.00,weatherlink.com 1.10,2013-10-13 22:02:00,
2013-10-13 17:17:00,59.3,36.0,30.40,West,263,0.0,0.0,42,0.00,,,0.00,weatherlink.com 1.10,2013-10-13 22:17:00,
2013-10-13 17:32:00,59.0,36.0,30.40,WNW,292,0.0,1.0,42,0.00,,,0.00,weatherlink.com 1.10,2013-10-13 22:32:00,
2013-10-13 17:47:00,58.7,35.0,30.40,WNW,282,0.0,1.0,42,0.00,,,0.00,weatherlink.com 1.10,2013-10-13 22:47:00,
2013-10-13 18:02:00,57.7,36.0,30.39,WSW,237,0.0,0.0,44,0.00,,,0.00,weatherlink.com 1.10,2013-10-13 23:02:00,
2013-10-13 18:17:00,55.8,36.0,30.40,WSW,237,0.0,0.0,48,0.00,,,0.00,weatherlink.com 1.10,2013-10-13 23:17:00,
2013-10-13 18:32:00,54.2,36.0,30.40,WSW,237,0.0,0.0,51,0.00,,,0.00,weatherlink.com 1.10,2013-10-13 23:32:00,
2013-10-13 18:47:00,52.5,36.0,30.40,WSW,237,0.0,0.0,53,0.00,,,0.00,weatherlink.com 1.10,2013-10-13 23:47:00,
2013-10-13 19:02:00,51.3,35.0,30.40,WSW,237,0.0,0.0,55,0.00,,,0.00,weatherlink.com 1.10,2013-10-14 00:02:00,
2013-10-13 19:17:00,50.6,35.0,30.41,WSW,237,0.0,0.0,55,0.00,,,0.00,weatherlink.com 1.10,2013-10-14 00:17:00,
2013-10-13 19:32:00,50.5,35.0,30.41,SW,234,0.0,0.0,55,0.00,,,0.00,weatherlink.com 1.10,2013-10-14 00:32:00,
2013-10-13 19:47:00,50.6,34.0,30.41,SW,236,0.0,0.0,53,0.00,,,0.00,weatherlink.com 1.10,2013-10-14 00:47:00,
2013-10-13 20:02:00,50.3,34.0,30.41,SW,235,0.0,0.0,53,0.00,,,0.00,weatherlink.com 1.10,2013-10-14 01:02:00,
2013-10-13 20:17:00,49.8,34.0,30.41,WSW,237,0.0,0.0,55,0.00,,,0.00,weatherlink.com 1.10,2013-10-14 01:17:00,
2013-10-13 20:32:00,47.9,36.0,30.41,SW,236,0.0,0.0,64,0.00,,,0.00,weatherlink.com 1.10,2013-10-14 01:32:00,
2013-10-13 20:47:00,47.4,38.0,30.41,SW,235,0.0,0.0,69,0.00,,,0.00,weatherlink.com 1.10,2013-10-14 01:47:00,
2013-10-13 21:02:00,47.4,41.0,30.41,SW,235,0.0,0.0,77,0.00,,,0.00,weatherlink.com 1.10,2013-10-14 02:02:00,
2013-10-13 21:17:00,47.2,38.0,30.41,SW,235,0.0,0.0,71,0.00,,,0.00,weatherlink.com 1.10,2013-10-14 02:17:00,
2013-10-13 21:32:00,46.6,35.0,30.41,SW,236,0.0,0.0,65,0.00,,,0.00,weatherlink.com 1.10,2013-10-14 02:32:00,
2013-10-13 21:47:00,46.7,36.0,30.41,SW,235,0.0,0.0,66,0.00,,,0.00,weatherlink.com 1.10,2013-10-14 02:47:00,
2013-10-13 22:02:00,45.8,37.0,30.41,SW,235,0.0,0.0,71,0.00,,,0.00,weatherlink.com 1.10,2013-10-14 03:02:00,
2013-10-13 22:17:00,45.5,37.0,30.41,SW,236,0.0,0.0,73,0.00,,,0.00,weatherlink.com 1.10,2013-10-14 03:17:00,
2013-10-13 22:32:00,44.7,38.0,30.40,SW,235,0.0,0.0,77,0.00,,,0.00,weatherlink.com 1.10,2013-10-14 03:32:00,
2013-10-13 22:47:00,43.6,37.0,30.40,SW,236,0.0,0.0,78,0.00,,,0.00,weatherlink.com 1.10,2013-10-14 03:47:00,
2013-10-13 23:02:00,43.7,38.0,30.41,SW,236,0.0,0.0,81,0.00,,,0.00,weatherlink.com 1.10,2013-10-14 04:02:00,
2013-10-13 23:17:00,42.9,37.0,30.41,SW,236,0.0,0.0,81,0.00,,,0.00,weatherlink.com 1.10,2013-10-14 04:17:00,
2013-10-13 23:32:00,42.5,37.0,30.41,SW,235,0.0,0.0,82,0.00,,,0.00,weatherlink.com 1.10,2013-10-14 04:32:00,
2013-10-13 23:47:00,42.8,38.0,30.41,SW,235,0.0,0.0,83,0.00,,,0.00,weatherlink.com 1.10,2013-10-14 04:47:00,